Regional Weather Roundup
Issued by NWS Kansas City/Pleasant Hill, MO

Home | Current Version | Previous Version | Graphics & Text | Print | Product List | Glossary Off
Versions: 1 2 3 4 5 6 7 8 9 10 11 12 13 14 15 16 17 18 19 20 21 22 23 24 25 26 27 28 29 30 31 32 33 34 35 36 37 38 39 40 41 42 43 44 45 46 47 48 49 50

716
ASUS43 KEAX 220310
RWREAX

WEATHER ROUNDUP FOR EASTERN KANSAS AND NORTHWEST MISSOURI
NATIONAL WEATHER SERVICE KANSAS CITY/PLEASANT HILL MO
900 PM CST WED FEB 21 2018

KSZ040-057-103>105-MOZ028-029-037-043-220400-
...KANSAS CITY METROPOLITAN AREA...

CITY           SKY/WX    TMP DP  RH WIND       PRES   REMARKS
K.C. INTL      CLOUDY    27  23  85 E16       30.47F WCI  15
K.C. DOWNTOWN  CLOUDY    29  21  72 NE10      30.47F WCI  20
LEES SUMMIT    CLOUDY    27  24  89 NE12      30.46F WCI  17
OLATHE - IXD   CLOUDY    26  23  88 NE14      30.44F WCI  14
OLATHE - OJC   CLOUDY    25  22  88 NE10G20   30.44F WCI  15
LAWRENCE       CLOUDY    27  24  89 NE10      30.46F WCI  17

$$

MOZ001>008-011>017-020>025-030>033-038>040-044>046-053-054-220400-
...NORTHERN AND CENTRAL MISSOURI...

CITY           SKY/WX    TMP DP  RH WIND       PRES   REMARKS
ST. JOSEPH     CLOUDY    27  23  85 NE12      30.51F WCI  17
MOSBY            N/A     28  23  80 NE8       30.50F WCI  20
WARRENSBURG    CLOUDY    28  25  86 NE7       30.48F WCI  21
WHITEMAN AFB   CLOUDY    29  22  77 NE10      30.43F WCI  19
CLINTON        CLOUDY    28  25  86 CALM      30.46S
SEDALIA        CLOUDY    29  27  92 NE10      30.48F WCI  20
WARSAW         NOT AVBL
CHILLICOTHE      N/A     27  21  78 N9        30.54F WCI  18
KIRKSVILLE     MOCLDY    27  21  78 NE15      30.54F WCI  15

$$

MOZ041-047>049-056>058-063>065-088>090-097-220400-
...EASTERN AND SOUTHERN MISSOURI...

CITY           SKY/WX    TMP DP  RH WIND       PRES   REMARKS
ST. LOUIS INTL CLOUDY    32  30  92 N8        30.52R WCI  25
SPIRIT OF STL  CLOUDY    31  29  92 NE7       30.51S WCI  24
COLUMBIA       CLOUDY    29  26  89 E10       30.47F WCI  20
JEFFERSON CITY CLOUDY    29  26  89 E8        30.48F WCI  21
ROLLA          CLOUDY    27  26  96 NE15      30.44F WCI  15
OSAGE BEACH    CLOUDY    27  26  96 E13       30.45F WCI  16
SPRINGFIELD    CLOUDY    29  27  92 E15       30.29F WCI  18
BRANSON        CLOUDY    30  30 100 E3        30.35F
JOPLIN         CLOUDY    29  28  96 NE10      30.38R WCI  20
WEST PLAINS    FRZ RAIN  32  30  92 NE10      30.39F FOG     WCI  24

$$

IAZ060-094-KSZ022-034>040-054-083-096-NEZ052-066-093-220400-
...KANSAS...SOUTHEAST NEBRASKA AND IOWA...

CITY           SKY/WX    TMP DP  RH WIND       PRES   REMARKS
TOPEKA         MIX PCPN  28  24  85 NE14      30.47F WCI  17
MANHATTAN      CLOUDY    28  18  66 NE9       30.46F WCI  19
EMPORIA        FRZ RAIN  24  21  88 NE12      30.42F WCI  13
CHANUTE        CLOUDY    28  24  85 NE12      30.40F WCI  18
WICHITA        FRZ DRZL  25  22  88 NE13      30.39F WCI  14
OMAHA          CLOUDY    24  14  65 E6        30.57S WCI  17
LINCOLN        CLOUDY    25  14  63 NE13      30.53S WCI  14
FALLS CITY     CLOUDY    27  21  78 E8        30.50F WCI  19
LAMONI         CLOUDY    25  20  81 NE9       30.53F WCI  15
DES MOINES     CLOUDY    24  16  71 E8        30.59S WCI  15

$$





USA.gov is the U.S. government's official web portal to all federal, state and local government web resources and services.